Location: Ballard
(38.3614°N, 94.1431°W)
Time: 04:54:52
(UTC-05:00)

OTV 5 (USA 277) - Visible Passes

Search period start: 26 March 2019 00:00
Search period end: 05 April 2019 00:00
Orbit: 315 x 320 km, 54.5° (Epoch: 14 March)

Date Brightness Start Highest point End Pass type
(mag) Time Alt. Az. Time Alt. Az. Time Alt. Az.
30 Mar ? 05:57:22 10° S 05:59:08 16° SE 06:00:56 10° E visible
31 Mar ? 06:11:12 11° SSW 06:13:41 51° SE 06:16:20 10° NE visible
01 Apr ? 06:25:51 11° WSW 06:28:21 43° NW 06:30:58 10° NE visible
02 Apr ? 05:09:27 25° ESE 05:09:27 25° ESE 05:11:14 10° ENE visible
03 Apr ? 05:23:50 60° NNE 05:23:50 60° NNE 05:26:10 10° NE visible
04 Apr ? 05:38:08 26° NW 05:38:12 26° NW 05:40:34 10° NNE visible
